Regional Weather Roundup
Issued by NWS Little Rock, AR

Home | Current Version | Previous Version | Graphics & Text | Print | Product List | Glossary On
Versions: 1 2 3 4 5 6 7 8 9 10 11 12 13 14 15 16 17 18 19 20 21 22 23 24 25 26 27 28 29 30 31 32 33 34 35 36 37 38 39 40 41 42 43 44 45 46 47 48 49 50
000
ASUS44 KLZK 041005
RWRLZK

WEATHER ROUNDUP FOR ARKANSAS
NATIONAL WEATHER SERVICE LITTLE ROCK AR
500 AM CDT TUE AUG 04 2015

NOTE: "FAIR" INDICATES FEW OR NO CLOUDS BELOW 12,000 FEET WITH NO
SIGNIFICANT WEATHER AND/OR OBSTRUCTIONS TO VISIBILITY.

ARZ001-003-010-029-041100-
NORTHWEST ARKANSAS

CITY           SKY/WX    TMP DP  RH WIND       PRES   REMARKS
FAYETTEVILLE   PTCLDY    66  66 100 CALM      29.98S
FORT SMITH     MOCLDY    75  69  81 NE6       29.94R
HARRISON       CLEAR     68  67  96 SE3       29.99S
BENTONVILLE    CLEAR     70  64  83 CALM      29.98S
ROGERS         CLEAR     72  68  87 SE5       29.99R
SILOAM SPGS    PTCLDY    70  63  78 SE5       29.96S
HIGHFILL       PTCLDY    71  69  93 CALM      29.97S
$$

ARZ004-005-016-041100-
NORTH CENTRAL ARKANSAS

CITY           SKY/WX    TMP DP  RH WIND       PRES   REMARKS
BATESVILLE     CLEAR     72  70  94 CALM      29.95S
FLIPPIN        CLEAR     70  66  88 CALM      29.95S
MTN HOME       CLEAR     71  70  96 CALM      29.97R
$$

ARZ040-041-041100-
WEST CENTRAL ARKANSAS

CITY           SKY/WX    TMP DP  RH WIND       PRES   REMARKS
MENA           MOCLDY    70  64  83 CALM      29.98S
MOUNT IDA      MOCLDY    69  67  93 CALM      29.95S
$$

ARZ009-017-025-026-028-041100-
NORTHEAST ARKANSAS

CITY           SKY/WX    TMP DP  RH WIND       PRES   REMARKS
JONESBORO      PTCLDY    73  71  93 CALM      29.94R
NEWPORT        CLEAR     74  72  93 CALM      29.96R
WALNUT RIDGE   CLEAR     73  70  88 S5        29.95R
BLYTHEVILLE    PTCLDY    75  74  96 S5        29.95R
$$

ARZ022-023-033-042-044-041100-
CENTRAL ARKANSAS

CITY           SKY/WX    TMP DP  RH WIND       PRES   REMARKS
LITTLE ROCK    PTCLDY    75  70  84 CALM      29.95S
N LITTLE ROCK    N/A     78  69  73 SW3       29.95S
JACKSONVILLE   CLEAR     70  67  91 CALM      29.95R
SEARCY         CLEAR     70  69  97 CALM      29.97R
HOT SPRINGS    MOCLDY    74  68  81 CALM      29.96S
RUSSELLVILLE   CLEAR     70  68  93 CALM      29.94S
$$

ARZ036-041100-
EAST ARKANSAS

CITY           SKY/WX    TMP DP  RH WIND       PRES   REMARKS
WEST MEMPHIS   PTCLDY    73  72  96 CALM      29.95R
$$

ARZ050-053-066-070-073-041100-
SOUTHWEST ARKANSAS

CITY           SKY/WX    TMP DP  RH WIND       PRES   REMARKS
ARKADELPHIA    FAIR      71  71 100 CALM      29.95S
CAMDEN         PTCLDY    70  66  88 CALM      29.94S
TEXARKANA      PTCLDY    74  68  81 E5        29.93F
EL DORADO      PTCLDY    71  68  90 CALM      29.95S
DE QUEEN       MOCLDY    71  70  96 CALM      29.91F
$$

ARZ056-057-069-041100-
SOUTHEAST ARKANSAS

CITY           SKY/WX    TMP DP  RH WIND       PRES   REMARKS
PINE BLUFF     PTCLDY    73  71  93 CALM      29.95S
STUTTGART      PTCLDY    79  72  78 CALM      29.95S
MONTICELLO     CLEAR     74  70  87 CALM      29.96R

$$





USA.gov is the U.S. government's official web portal to all federal, state and local government web resources and services.